Regional Weather Roundup
Issued by NWS Green Bay, WI

Home | Current Version | Previous Version | Graphics & Text | Print | Product List | Glossary Off
Versions: 1 2 3 4 5 6 7 8 9 10 11 12 13 14 15 16 17 18 19 20 21 22 23 24 25 26 27 28 29 30 31 32 33 34 35 36 37 38 39 40 41 42 43 44 45 46 47 48 49 50

011
ASUS43 KGRB 181001
RWRGRB

NORTH-CENTRAL AND NORTHEAST WISCONSIN REGIONAL WEATHER ROUNDUP
NATIONAL WEATHER SERVICE GREEN BAY WI
500 AM CDT WED OCT 18 2017

WIZ005-009-010>012-018-019-181100-
NORTH CENTRAL WISCONSIN

CITY           SKY/WX    TMP DP  RH WIND       PRES   REMARKS
IRONWOOD       CLEAR     54  44  69 SW9       29.87R
MANITOWISH WTR NOT AVBL
ARBOR VITAE    NOT AVBL
EAGLE RIVER    NOT AVBL
LAND O LAKES   NOT AVBL
RHINELANDER    CLEAR     50  44  80 SW8       29.95S
PHILLIPS       NOT AVBL
ANTIGO         NOT AVBL
TOMAHAWK       NOT AVBL
MERRILL        NOT AVBL
$$

WIZ013-073-181100-
NORTHEAST WISCONSIN

CITY           SKY/WX    TMP DP  RH WIND       PRES   REMARKS
IRON MOUNTAIN  CLEAR     43  39  86 SE3       29.94R
MARINETTE      CLEAR     53  45  74 SW7       29.99S
$$

WIZ017-030-035>037-045-181100-
CENTRAL WISCONSIN

CITY           SKY/WX    TMP DP  RH WIND       PRES   REMARKS
MEDFORD        NOT AVBL
WAUSAU         CLEAR     48  43  82 S6        29.96S
MOSINEE        NOT AVBL
MARSHFIELD     CLEAR     46  41  82 S7        29.96S
WISC RAPIDS    CLEAR     49  44  83 S6        30.00R
STEVENS POINT  NOT AVBL
WAUPACA        NOT AVBL
SHAWANO        NOT AVBL
CLINTONVILLE   NOT AVBL
WAUTOMA        CLEAR     39  38  96 CALM      30.02S
$$

WIZ038-039-048-051-181100-
FOX VALLEY

CITY           SKY/WX    TMP DP  RH WIND       PRES   REMARKS
NWS GREEN BAY  CLEAR     52  46  80 S8        30.01R
APPLETON       NOT AVBL
OSHKOSH        CLEAR     51  43  74 S14       30.02S
FOND DU LAC    CLEAR     54  41  61 SW9       30.04S
$$

WIZ022-050-052-181100-
EAST CENTRAL WISCONSIN

CITY           SKY/WX    TMP DP  RH WIND       PRES   REMARKS
EPHRAIM        NOT AVBL
WASHINGTON ISL NOT AVBL
STURGEON BAY   CLEAR     53  44  71 S10       30.01S
MANITOWOC      CLEAR     51  42  71 S6        30.04S
SHEBOYGAN      CLEAR     50  43  77 SW7       30.05S
$$

LMZ563-521-522-541>543-181100-
LAKESHORE

STATION/POSITION TIME  TEMP    WIND        PRES    VSBY  WAVE
                       AIR SEA DIR/SP/G                  HT/PER
                 (UTC) (F)     (DEG/KT/KT) (MB)    (MI)  (FT/S)
SHEBOYGAN LKSHOR 0900   55     190/  9/ 10 1017.4F
KEWAUNEE LKSHORE 0930   54     210/  8/ 10 1015.7R
NORTHPORT PIER   0940   55     160/  2/  7 1015.2S
N MID LAKE BUOY  0850   60 59  210/ 16/ 21 1015.8F         4/ 5
S GREEN BAY BUOY 0930   58 58  210/ 16/ 19 1015.4S
SISTER BAY LKSHO 0919   60     220/ 13/ 15   N/A
MENOMINEE LKSHOR 0924   55     210/  8/ 10 1015.0
$$




USA.gov is the U.S. government's official web portal to all federal, state and local government web resources and services.